Location: Fort Worth, Tx
(32.7431°N, 97.3695°W)
Time: 08:10:42
(UTC-04:00)

Vanguard 2 - Pass Details

Date: 03 March 2024
Orbit: 552 x 2916 km, 32.9° (Epoch: 24 April)

Event Time Altitude Azimuth Distance (km) Brightness Sun altitude
Rises 20:16:29 0° 267° (W) 3,799 13.4 -10.8°
Reaches altitude 10° 20:18:41 10° 267° (W) 3,074 12.2 -11.3°
Maximum altitude 20:26:36 89° 356° (N) 1,653 9.1 -12.9°
Enters shadow 20:37:13 18° 89° (E) 4,172 10.6 -15.2°
